When you browse on this site, cookies collect data to enhance your experience and personalize the content and advertising you see.
Visit our Privacy Policy to learn more. By continuing to use the site, you agree to this use of cookies and data.
  • In Portugal
  • List of Countries
  • For 7 days
  • Water Temperature
  • Weather Map
  • Weather Widgets
  • user-avatar
    Login

    Hourly Weather Ochury

    Today, 7 June, Sunday

    Time Temperature Precipitation Wind Pressure Humidity
    00:00 +7°C° 0 mm 5 mps 736 mmHg 93%
    01:00 +7°C° 0.4 mm 5 mps 736 mmHg 93%
    02:00 +7°C° 0.4 mm 4 mps 736 mmHg 92%
    03:00 +7°C° 0.4 mm 4 mps 736 mmHg 92%
    04:00 +7°C° 0.1 mm 4 mps 736 mmHg 91%
    05:00 +8°C° 0.1 mm 4 mps 736 mmHg 90%
    06:00 +10°C° 0.1 mm 4 mps 737 mmHg 89%
    07:00 +10°C° 0.3 mm 5 mps 736 mmHg 86%
    08:00 +11°C° 0.3 mm 6 mps 736 mmHg 83%
    09:00 +11°C° 0.3 mm 7 mps 736 mmHg 80%
    10:00 +11°C° 0.4 mm 6 mps 736 mmHg 81%
    11:00 +11°C° 0.4 mm 6 mps 736 mmHg 82%
    12:00 +11°C° 0.4 mm 6 mps 736 mmHg 83%
    13:00 +12°C° 0.4 mm 7 mps 736 mmHg 80%
    14:00 +14°C° 0.4 mm 7 mps 735 mmHg 77%
    15:00 +14°C° 0.4 mm 7 mps 735 mmHg 74%
    16:00 +14°C° 0.6 mm 6 mps 735 mmHg 78%
    17:00 +13°C° 0.6 mm 6 mps 735 mmHg 81%
    18:00 +13°C° 0.6 mm 6 mps 735 mmHg 85%
    19:00 +12°C° 1.4 mm 5 mps 735 mmHg 88%
    20:00 +11°C° 1.4 mm 4 mps 735 mmHg 90%
    21:00 +10°C° 1.4 mm 3 mps 735 mmHg 93%
    22:00 +9°C° 0.8 mm 3 mps 735 mmHg 93%
    23:00 +9°C° 0.8 mm 3 mps 735 mmHg 93%

    Tomorrow, 8 June, Monday

    Time Temperature Precipitation Wind Pressure Humidity
    00:00 +9°C° 0.8 mm 3 mps 736 mmHg 94%
    01:00 +8°C° 0.2 mm 3 mps 736 mmHg 93%
    02:00 +8°C° 0.2 mm 3 mps 736 mmHg 93%
    03:00 +7°C° 0.2 mm 3 mps 736 mmHg 93%
    04:00 +8°C° 0.1 mm 2 mps 736 mmHg 91%
    05:00 +9°C° 0.1 mm 2 mps 736 mmHg 89%
    06:00 +10°C° 0.1 mm 2 mps 737 mmHg 87%
    07:00 +12°C° 0.1 mm 3 mps 736 mmHg 79%
    08:00 +13°C° 0.1 mm 3 mps 736 mmHg 71%
    09:00 +14°C° 0.1 mm 3 mps 736 mmHg 63%
    10:00 +16°C° 0.1 mm 3 mps 736 mmHg 59%
    11:00 +17°C° 0.1 mm 3 mps 736 mmHg 55%
    12:00 +17°C° 0.1 mm 3 mps 736 mmHg 51%
    13:00 +18°C° 0 mm 3 mps 735 mmHg 50%
    14:00 +18°C° 0 mm 3 mps 735 mmHg 49%
    15:00 +18°C° 0 mm 3 mps 735 mmHg 48%
    16:00 +18°C° 0 mm 2 mps 735 mmHg 53%
    17:00 +18°C° 0 mm 2 mps 735 mmHg 57%
    18:00 +19°C° 0 mm 1 mps 735 mmHg 62%
    19:00 +16°C° 0 mm 2 mps 734 mmHg 64%
    20:00 +13°C° 0 mm 3 mps 734 mmHg 67%
    21:00 +11°C° 0 mm 3 mps 734 mmHg 69%
    22:00 +11°C° 0 mm 4 mps 734 mmHg 70%
    23:00 +11°C° 0 mm 4 mps 733 mmHg 71%

    Day after tomorrow, 9 June, Tuesday

    Time Temperature Precipitation Wind Pressure Humidity
    00:00 +11°C° 0 mm 4 mps 733 mmHg 71%
    01:00 +11°C° 0.2 mm 4 mps 732 mmHg 73%
    02:00 +11°C° 0.2 mm 4 mps 731 mmHg 75%
    03:00 +11°C° 0.2 mm 3 mps 731 mmHg 77%
    04:00 +10°C° 1.6 mm 3 mps 730 mmHg 82%
    05:00 +10°C° 1.6 mm 3 mps 730 mmHg 87%
    06:00 +9°C° 1.6 mm 3 mps 729 mmHg 93%
    07:00 +10°C° 1.3 mm 4 mps 730 mmHg 92%
    08:00 +11°C° 1.3 mm 4 mps 730 mmHg 92%
    09:00 +12°C° 1.3 mm 4 mps 730 mmHg 91%
    10:00 +12°C° 1.2 mm 4 mps 731 mmHg 91%
    11:00 +12°C° 1.2 mm 3 mps 731 mmHg 92%
    12:00 +13°C° 1.2 mm 3 mps 732 mmHg 92%
    13:00 +12°C° 1 mm 3 mps 732 mmHg 93%
    14:00 +13°C° 1 mm 2 mps 732 mmHg 94%
    15:00 +13°C° 1 mm 2 mps 732 mmHg 95%
    16:00 +13°C° 0.4 mm 2 mps 733 mmHg 95%
    17:00 +12°C° 0.3 mm 2 mps 733 mmHg 94%
    18:00 +12°C° 0.3 mm 2 mps 734 mmHg 93%
    19:00 +12°C° 0 mm 1 mps 734 mmHg 93%
    20:00 +11°C° 0 mm 1 mps 734 mmHg 92%
    21:00 +11°C° 0 mm 1 mps 735 mmHg 91%
    22:00 +10°C° 0 mm 1 mps 735 mmHg 91%
    23:00 +10°C° 0 mm 1 mps 735 mmHg 91%

    10 June, Wednesday

    Time Temperature Precipitation Wind Pressure Humidity
    00:00 +10°C° 0 mm 1 mps 736 mmHg 91%
    01:00 +9°C° 0 mm 1 mps 736 mmHg 92%
    02:00 +8°C° 0 mm 0 mps 736 mmHg 92%
    03:00 +8°C° 0 mm 0 mps 736 mmHg 92%
    04:00 +9°C° 0 mm 0 mps 736 mmHg 91%
    05:00 +10°C° 0 mm 0 mps 736 mmHg 90%
    06:00 +11°C° 0 mm 0 mps 737 mmHg 89%
    07:00 +13°C° 0.1 mm 1 mps 737 mmHg 86%
    08:00 +15°C° 0.1 mm 1 mps 737 mmHg 82%
    09:00 +16°C° 0.1 mm 1 mps 737 mmHg 78%
    10:00 +16°C° 0.2 mm 2 mps 737 mmHg 75%
    11:00 +17°C° 0.2 mm 2 mps 737 mmHg 71%
    12:00 +18°C° 0.2 mm 2 mps 736 mmHg 67%
    13:00 +18°C° 0.1 mm 2 mps 736 mmHg 65%
    14:00 +18°C° 0.1 mm 2 mps 736 mmHg 63%
    15:00 +19°C° 0.1 mm 2 mps 736 mmHg 61%
    16:00 +19°C° 0 mm 1 mps 736 mmHg 63%
    17:00 +19°C° 0 mm 1 mps 736 mmHg 65%
    18:00 +17°C° 0 mm 0 mps 736 mmHg 67%
    19:00 +16°C° 0 mm 1 mps 736 mmHg 71%
    20:00 +14°C° 0 mm 1 mps 736 mmHg 74%
    21:00 +13°C° 0 mm 2 mps 736 mmHg 78%
    22:00 +12°C° 0 mm 2 mps 736 mmHg 79%
    23:00 +12°C° 0 mm 2 mps 737 mmHg 79%

    11 June, Thursday

    Time Temperature Precipitation Wind Pressure Humidity
    00:00 +12°C° 0 mm 2 mps 737 mmHg 80%
    01:00 +10°C° 0 mm 2 mps 737 mmHg 80%
    02:00 +10°C° 0 mm 2 mps 737 mmHg 80%
    03:00 +10°C° 0 mm 2 mps 736 mmHg 80%
    04:00 +12°C° 0 mm 2 mps 736 mmHg 78%
    05:00 +13°C° 0 mm 2 mps 736 mmHg 76%
    06:00 +14°C° 0 mm 2 mps 736 mmHg 75%
    07:00 +14°C° 0.1 mm 3 mps 735 mmHg 74%
    08:00 +16°C° 0.1 mm 3 mps 735 mmHg 73%
    09:00 +17°C° 0.1 mm 4 mps 735 mmHg 73%
    10:00 +15°C° 0.8 mm 5 mps 735 mmHg 78%
    11:00 +15°C° 0.8 mm 5 mps 735 mmHg 82%
    12:00 +14°C° 0.8 mm 5 mps 735 mmHg 87%
    13:00 +14°C° 0.2 mm 5 mps 735 mmHg 86%
    14:00 +15°C° 0.2 mm 4 mps 735 mmHg 86%
    15:00 +15°C° 0.2 mm 4 mps 735 mmHg 85%
    16:00 +14°C° 0.2 mm 4 mps 734 mmHg 86%
    17:00 +14°C° 0.2 mm 4 mps 734 mmHg 87%
    18:00 +14°C° 0.2 mm 4 mps 734 mmHg 88%
    19:00 +14°C° 0.2 mm 4 mps 734 mmHg 88%
    20:00 +14°C° 0.2 mm 3 mps 734 mmHg 88%
    21:00 +13°C° 0.2 mm 3 mps 734 mmHg 88%
    22:00 +13°C° 0.2 mm 3 mps 734 mmHg 89%
    23:00 +13°C° 0.2 mm 3 mps 734 mmHg 90%

    12 June, Friday

    Time Temperature Precipitation Wind Pressure Humidity
    00:00 +13°C° 0.2 mm 3 mps 734 mmHg 91%
    01:00 +13°C° 0.6 mm 3 mps 734 mmHg 91%
    02:00 +14°C° 0.6 mm 2 mps 734 mmHg 92%
    03:00 +14°C° 0.6 mm 2 mps 733 mmHg 92%
    04:00 +15°C° 0 mm 2 mps 733 mmHg 91%
    05:00 +15°C° 0 mm 2 mps 733 mmHg 90%
    06:00 +16°C° 0 mm 2 mps 733 mmHg 88%
    07:00 +17°C° 0 mm 2 mps 733 mmHg 84%
    08:00 +19°C° 0 mm 2 mps 733 mmHg 79%
    09:00 +20°C° 0 mm 2 mps 733 mmHg 74%
    10:00 +21°C° 0.3 mm 2 mps 733 mmHg 72%
    11:00 +23°C° 0.3 mm 2 mps 733 mmHg 70%
    12:00 +24°C° 0.3 mm 3 mps 733 mmHg 68%
    13:00 +25°C° 0.2 mm 2 mps 732 mmHg 65%
    14:00 +25°C° 0.2 mm 2 mps 732 mmHg 63%
    15:00 +26°C° 0.2 mm 2 mps 732 mmHg 60%
    16:00 +25°C° 0.2 mm 1 mps 731 mmHg 66%
    17:00 +25°C° 0.2 mm 1 mps 731 mmHg 71%
    18:00 +23°C° 0.2 mm 0 mps 731 mmHg 76%
    19:00 +23°C° 0.3 mm 1 mps 731 mmHg 79%
    20:00 +21°C° 0.3 mm 1 mps 731 mmHg 82%
    21:00 +19°C° 0.3 mm 1 mps 732 mmHg 86%
    22:00 +18°C° 0.1 mm 1 mps 731 mmHg 87%
    23:00 +18°C° 0.1 mm 1 mps 731 mmHg 88%
    Show more